Home > Weather > Nuuk > Past weeks

Flag for Greenland Past Weather in Nuuk, Greenland — Yesterday and Last 2 Weeks

Now
39 °F

Fog.


Feels Like: 39 °F
Forecast: 47 / 61 °F
Wind: No wind

Location: Godthaab / Nuuk

Current Time: Jul 30, 2016 at 7:24:41 AM

Latest Report: Jul 30, 2016 at 6:50 AM


Visibility: 0 mi

Pressure: 30.15 "Hg

Humidity: 100%

Dew Point: 39 °F

Location of NuukLocation

Past Weather in Nuuk — Graph

°F

Nuuk Temperature Yesterday

Maximum temperature yesterday: 61 °F (at 12:50 PM)
Minimum temperature yesterday: 39 °F (at 11:50 PM)
Average temperature yesterday: 48 °F

High & Low Weather Summary for the Past Weeks

 TemperatureHumidityPressure
High68 °F (Jul 25, 2:50 PM)100% (Jul 15, 5:50 AM)30.21 "Hg (Jul 15, 5:50 AM)
Low37 °F (Jul 28, 3:50 AM)40% (Jul 25, 2:50 PM)29.56 "Hg (Jul 16, 5:50 AM)
Average50 °F79%29.96 "Hg
* Reported Jul 15 5:50 AM — Jul 30 5:50 AM, Nuuk, Weather by CustomWeather, © 2016

Note: Actual official high and low records may vary slightly from our data, if they occured in-between our weather recording intervals... More about our weather records

Advertising

Nuuk Weather History for the Previous 24 Hours

Scroll right to see more
 ConditionsComfort  
Time TempWeatherWind HumidityBarometerVisibility
5:50 AM
Sat, Jul 30
37 °FFog.1 mph100%30.15 "Hg0 mi
4:50 AM37 °FFog.No wind100%30.15 "Hg0 mi
3:50 AM37 °FFog.No wind100%30.15 "Hg0 mi
2:50 AM37 °FLight rain. Fog.2 mph100%30.18 "Hg0 mi
1:50 AM39 °FLight rain. Fog.3 mph93%30.18 "Hg0 mi
12:50 AM39 °FDrizzle. Dense fog.6 mph100%30.18 "Hg0 mi
11:50 PM
Fri, Jul 29
39 °FLight rain. Dense fog.3 mph100%30.18 "Hg0 mi
10:50 PM41 °FDrizzle. Dense fog.6 mph93%30.18 "Hg0 mi
9:50 PM41 °FLight rain. Dense fog.6 mph100%30.18 "Hg0 mi
8:50 PM43 °FFog.8 mph93%30.18 "Hg0 mi
7:50 PM46 °FFog.13 mph82%30.18 "HgN/A
6:50 PM48 °FFog.13 mph82%30.15 "HgN/A
5:50 PM52 °FFog.12 mph72%30.15 "HgN/A
4:50 PM54 °FFog.9 mph67%30.15 "HgN/A
3:50 PM57 °FPassing clouds.9 mph59%30.15 "HgN/A
2:50 PM59 °FPassing clouds.6 mph55%30.15 "HgN/A
1:50 PM59 °FPassing clouds.8 mph51%30.15 "HgN/A
12:50 PM61 °FFog.3 mph52%30.15 "HgN/A
11:50 AM57 °FFog.2 mph67%30.18 "HgN/A
10:50 AM52 °FFog.3 mph77%30.15 "Hg1 mi
9:50 AM48 °FFog.5 mph87%30.15 "Hg1 mi
8:50 AM45 °FFog.2 mph93%30.15 "Hg0 mi
7:50 AM43 °FFog.2 mph100%30.15 "Hg0 mi
Weather by CustomWeather, © 2016

See weather overviewHow to use our weather pages